EW3263 Weather Reports


Display with metric or nautical units.
time (UTC)temp
F
wind
direction
speed
MPH
gust
MPH
rain 1hr
in
rain 24hr
in
rain mn
in
humidity
%
barometer
mb
20260905083019 61 0.0 0.0 0.00 0.00 0.00 57 1019.2
20260905081510 61 0.0 0.0 0.00 0.00 0.00 58 1019.3
20260905080005 62 0.0 0.0 0.00 0.00 0.00 58 1019.4
20260905074600 62 0.0 0.0 0.00 0.00 0.00 58 1019.6
20260905073056 63 0.0 0.0 0.00 0.00 0.00 57 1019.7
20260905071552 63 0.0 0.0 0.00 0.00 0.00 57 1019.6
20260905070051 63 0.0 0.0 0.00 0.00 0.00 57 1019.5
20260905064544 63 0.0 0.0 0.00 0.00 0.00 57 1019.4
20260905063041 63 0.0 0.0 0.00 0.00 0.00 58 1019.5
20260905061534 63 0.0 0.0 0.00 0.00 0.00 59 1019.4
20260905060032 63 0.0 0.0 0.00 0.00 0.00 59 1019.4
20260905054532 64 0.0 0.0 0.00 0.00 0.00 59 1019.4
20260905053020 64 0.0 0.0 0.00 0.00 0.00 58 1019.4
20260905051516 65 0.0 0.0 0.00 0.00 0.00 59 1019.3
20260905050014 65 0.0 0.0 0.00 0.00 0.00 58 1019.3
20260905044510 66 0.0 0.0 0.00 0.00 0.00 56 1019.1
20260905043004 66 0.0 0.0 0.00 0.00 0.00 60 1018.9
20260905041601 67 0.0 0.0 0.00 0.00 0.00 61 1018.9
20260905040057 67 0.0 0.0 0.00 0.00 0.00 61 1019.0
20260905034551 68 0.0 0.0 0.00 0.00 0.00 58 1018.8
20260905033046 69 0.0 0.0 0.00 0.00 0.00 56 1018.7
20260905031542 69 0.0 0.0 0.00 0.00 0.00 55 1018.5
20260905030044 70 0.0 0.0 0.00 0.00 0.00 54 1018.2
20260905024533 71 0.0 0.0 0.00 0.00 0.00 52 1018.1
20260905023029 73 0.0 0.0 0.00 0.00 0.00 50 1018.1
20260905021525 74 0.0 0.0 0.00 0.00 0.00 47 1018.3
20260905020023 75 0.0 0.0 0.00 0.00 0.00 45 1018.1
20260905014515 76 0.0 0.0 0.00 0.00 0.00 43 1017.9
20260905013015 77 0.0 0.0 0.00 0.00 0.00 42 1018.0
20260905011509 78 0.0 0.0 0.00 0.00 0.00 41 1018.1
20260905010002 78 0.0 0.0 0.00 0.00 0.00 39 1017.9
20260905004626 79 0.0 0.0 0.00 0.00 0.00 39 1018.0
20260905003056 80 0.0 0.0 0.00 0.00 0.00 40 1018.0
20260905001550 79 0.0 0.0 0.00 0.00 0.00 41 1018.1
20260905000046 79 0.0 0.0 0.00 0.00 0.00 42 1018.2
20260904234540 80 0.0 0.0 0.00 0.00 0.00 42 1018.1
20260904233036 80 0.0 0.0 0.00 0.00 0.00 41 1018.1
20260904231536 81 0.0 0.0 0.00 0.00 0.00 39 1018.1
20260904230050 81 0.0 0.0 0.00 0.00 0.00 40 1018.2
20260904224528 81 0.0 0.0 0.00 0.00 0.00 41 1018.1
20260904223020 82 0.0 0.0 0.00 0.00 0.00 40 1018.2
20260904221521 82 0.0 0.0 0.00 0.00 0.00 41 1018.4
20260904220010 83 0.0 0.0 0.00 0.00 0.00 39 1018.3
20260904214513 83 0.0 0.0 0.00 0.00 0.00 40 1018.4
20260904213002 82 0.0 0.0 0.00 0.00 0.00 41 1018.4
20260904211557 82 0.0 0.0 0.00 0.00 0.00 42 1018.5
20260904210053 83 0.0 0.0 0.00 0.00 0.00 40 1018.5
20260904204549 83 0.0 0.0 0.00 0.00 0.00 39 1018.5
20260904203044 83 0.0 0.0 0.00 0.00 0.00 38 1018.6
20260904201539 82 0.0 0.0 0.00 0.00 0.00 38 1018.6
20260904200035 82 0.0 0.0 0.00 0.00 0.00 38 1018.7
20260904194531 81 0.0 0.0 0.00 0.00 0.00 37 1018.9
20260904193036 81 0.0 0.0 0.00 0.00 0.00 39 1019.0
20260904191525 80 0.0 0.0 0.00 0.00 0.00 41 1019.3
20260904190034 79 0.0 0.0 0.00 0.00 0.00 40 1019.4
20260904184514 79 0.0 0.0 0.00 0.00 0.00 41 1019.4
20260904183010 79 0.0 0.0 0.00 0.00 0.00 42 1019.5
20260904181505 78 0.0 0.0 0.00 0.00 0.00 41 1019.5
20260904180105 76 0.0 0.0 0.00 0.00 0.00 44 1019.6
20260904174556 75 0.0 0.0 0.00 0.00 0.00 45 1019.6
20260904173053 73 0.0 0.0 0.00 0.00 0.00 47 1019.7
20260904171547 73 0.0 0.0 0.00 0.00 0.00 49 1019.6
20260904170043 71 0.0 0.0 0.00 0.00 0.00 53 1019.6
20260904164538 70 0.0 0.0 0.00 0.00 0.00 56 1019.4
20260904163034 69 0.0 0.0 0.00 0.00 0.00 55 1019.4
20260904161530 68 0.0 0.0 0.00 0.00 0.00 60 1019.1
20260904160026 66 0.0 0.0 0.00 0.00 0.00 59 1019.0
20260904154521 65 0.0 0.0 0.00 0.00 0.00 61 1019.0
20260904153017 64 0.0 0.0 0.00 0.00 0.00 64 1019.0
20260904151512 63 0.0 0.0 0.00 0.00 0.00 65 1018.9
20260904150021 61 0.0 0.0 0.00 0.00 0.00 70 1018.9
20260904144505 59 0.0 0.0 0.00 0.00 0.00 71 1018.8
20260904143100 56 0.0 0.0 0.00 0.00 0.00 79 1018.8
20260904141557 54 0.0 0.0 0.00 0.00 0.00 81 1018.7
20260904140103 55 0.0 0.0 0.00 0.00 0.00 79 1018.6
20260904134549 56 0.0 0.0 0.00 0.00 0.00 88 1018.6
20260904133042 57 0.0 0.0 0.00 0.00 0.00 88 1018.6
20260904131537 57 0.0 0.0 0.00 0.00 0.00 89 1018.4
20260904130046 57 0.0 0.0 0.00 0.00 0.00 89 1018.2
20260904124529 57 0.0 0.0 0.00 0.00 0.00 89 1018.2
20260904123026 57 0.0 0.0 0.00 0.00 0.00 85 1018.0
20260904121520 58 0.0 0.0 0.00 0.00 0.00 88 1017.9
20260904120021 58 0.0 0.0 0.00 0.00 0.00 88 1018.1
20260904114512 58 0.0 0.0 0.00 0.00 0.00 88 1018.3
20260904113008 58 0.0 0.0 0.00 0.00 0.00 88 1018.3
20260904111502 58 0.0 0.0 0.00 0.00 0.00 88 1018.3
20260904110059 58 0.0 0.0 0.00 0.00 0.00 88 1018.4
20260904104555 58 0.0 0.0 0.00 0.00 0.00 88 1018.3
20260904103051 58 0.0 0.0 0.00 0.00 0.00 86 1018.2
20260904101546 56 0.0 0.0 0.00 0.00 0.00 83 1018.2
20260904100042 56 0.0 0.0 0.00 0.00 0.00 81 1018.1
20260904094537 56 0.0 0.0 0.00 0.00 0.00 80 1018.0
20260904093032 56 0.0 0.0 0.00 0.00 0.00 81 1017.9
20260904091528 56 0.0 0.0 0.00 0.00 0.00 80 1017.9
20260904090031 57 0.0 0.0 0.00 0.00 0.00 82 1017.9
20260904084520 57 0.0 0.0 0.00 0.00 0.00 83 1017.9